Tucson Davis Monthan, AZ

9:46 AM MST on June 24, 2018 (GMT -0700)
Davis-Monthan Air Force Base

Weather History for KDMA - October, 2017

Change the Weather History Date:

Wednesday, October 11, 2017

  Actual Average Record
Temperature  
Mean Temperature 82 °F -  
Max Temperature 95 °F 85 °F 99 °F (1950)
Min Temperature 69 °F 57 °F 43 °F (1973)
Cooling Degree Days 17    
Growing Degree Days 32 (Base 50)    
Moisture  
Dew Point 37 °F    
Average Humidity 20    
Maximum Humidity 31    
Minimum Humidity 13    
Precipitation  
Precipitation 0.00 in - - ()
Sea Level Pressure  
Sea Level Pressure 29.81 in    
Wind  
Wind Speed 11 mph (SE)    
Max Wind Speed 20 mph    
Max Gust Speed 25 mph    
Visibility 10 miles    
Events      
Averages and records for this station are not official NWS values.
T = Trace of Precipitation, MM = Missing Value Source: NWS Daily Summary

Daily Weather History Graph

Daily Weather History Graph

Search for Another Location

Airport or City:

Astronomy

Oct. 11, 2017 Rise Set
Actual Time 6:24 AM MST 5:55 PM MST
Civil Twilight 5:59 AM MST 6:19 PM MST
Nautical Twilight 5:31 AM MST 6:48 PM MST
Astronomical Twilight 5:03 AM MST 7:16 PM MST
Moon 11:15 PM MST (10/11) 12:31 PM MST (10/11)
Length of Visible Light 12h 19m
Length of Day
11h 30m
Waning Gibbous, 58% of the Moon is Illuminated
Oct 11
Waning Gibbous
Oct 12
Last Quarter
Oct 19
New
Oct 27
First Quarter
Nov 3
Full

Hourly Weather History & Observations

Time (MST) Temp. Dew Point Humidity Pressure Visibility Wind Dir Wind Speed Gust Speed Precip Events Conditions
12:58 AM 77.0 °F 33.8 °F 21% 29.82 in 10.0 mi SE 10.4 mph 16.1 mph N/A   Clear
1:58 AM 73.4 °F 35.6 °F 25% 29.81 in 10.0 mi East 11.5 mph - N/A   Clear
2:58 AM 73.4 °F 33.8 °F 23% 29.79 in 10.0 mi SE 10.4 mph - N/A   Clear
3:58 AM 71.6 °F 35.6 °F 27% 29.81 in 10.0 mi East 10.4 mph - N/A   Clear
4:58 AM 69.8 °F 37.4 °F 31% 29.81 in 10.0 mi East 16.1 mph - N/A   Clear
5:58 AM 69.8 °F 37.4 °F 31% 29.83 in 10.0 mi ESE 19.6 mph - N/A   Clear
6:58 AM 71.6 °F 35.6 °F 27% 29.84 in 10.0 mi ESE 13.8 mph 23.0 mph N/A   Clear
7:58 AM 73.4 °F 37.4 °F 27% 29.86 in 10.0 mi ESE 18.4 mph 25.3 mph N/A   Clear
8:58 AM - - N/A% - 10.0 mi SE 19.6 mph - N/A   Clear
9:56 AM - - N/A% - 10.0 mi ESE 17.3 mph - N/A   Clear
10:59 AM 86.0 °F 37.4 °F 18% 29.96 in 10.0 mi SE 6.9 mph - N/A   Clear
11:59 AM 91.4 °F 35.6 °F 14% 29.94 in 10.0 mi Variable 3.5 mph - N/A   Clear
12:59 PM 95.0 °F 37.4 °F 13% 29.76 in 10.0 mi Variable 5.8 mph - N/A   Clear
1:59 PM 95.0 °F 37.4 °F 13% 29.73 in 10.0 mi Variable 4.6 mph - N/A   Clear
2:59 PM 95.0 °F 37.4 °F 13% 29.87 in 10.0 mi Variable 3.5 mph - N/A   Clear
3:55 PM 95.4 °F 36.3 °F 13% 29.73 in 10.0 mi WSW 11.5 mph 17.3 mph N/A   Clear
4:55 PM 93.7 °F 37.0 °F 14% 29.71 in 10.0 mi West 11.5 mph 16.1 mph N/A   Partly Cloudy
5:55 PM 91.2 °F 37.0 °F 15% 29.73 in 10.0 mi WNW 8.1 mph - N/A   Partly Cloudy
6:55 PM 87.4 °F 37.9 °F 17% 29.75 in 10.0 mi WNW 4.6 mph - N/A   Clear
7:55 PM 84.9 °F 37.9 °F 19% 29.78 in 10.0 mi West 4.6 mph - N/A   Clear
8:55 PM 83.1 °F 36.1 °F 19% 29.80 in 10.0 mi WNW 4.6 mph - N/A   Clear
9:55 PM 81.0 °F 36.9 °F 21% 29.80 in 10.0 mi Variable 5.8 mph - N/A   Clear
10:55 PM 77.0 °F 37.0 °F 24% 29.81 in 10.0 mi SSE 8.1 mph - N/A   Unknown
11:55 PM 75.6 °F 36.3 °F 24% 29.80 in 10.0 mi SE 6.9 mph - N/A   Clear